TimeCST,TemperatureF,Dew PointF,Humidity,Sea Level PressureIn,VisibilityMPH,Wind Direction,Wind SpeedMPH,Gust SpeedMPH,PrecipitationIn,Events,Conditions,WindDirDegrees,DateUTC
12:12 AM,-4.0,-9.4,78,30.42,7.0,NW,15.0,-,0.00,Snow,Light Snow,320,2013-12-06 06:12:00
12:53 AM,-4.0,-9.0,79,30.56,5.0,NW,15.0,-,0.00,Snow,Light Snow,310,2013-12-06 06:53:00
1:31 AM,-4.0,-7.6,85,30.42,3.0,NW,18.4,-,0.00,Snow,Light Snow,320,2013-12-06 07:31:00
1:53 AM,-2.9,-8.0,79,30.56,3.0,NW,18.4,-,0.00,,Overcast,320,2013-12-06 07:53:00
2:16 AM,-4.0,-7.6,85,30.42,2.5,NW,16.1,-,0.00,Snow,Light Snow,320,2013-12-06 08:16:00
2:53 AM,-4.0,-9.0,79,30.57,2.5,NW,18.4,-,0.00,Snow,Light Snow,320,2013-12-06 08:53:00
3:03 AM,-4.0,-9.4,78,30.42,6.0,NW,16.1,-,0.00,,Overcast,320,2013-12-06 09:03:00
3:32 AM,-5.8,-9.4,84,30.42,10.0,NW,17.3,-,0.00,,Scattered Clouds,320,2013-12-06 09:32:00
3:53 AM,-5.1,-9.9,80,30.57,10.0,NW,18.4,-,0.00,,Partly Cloudy,320,2013-12-06 09:53:00
4:44 AM,-5.8,-9.4,84,30.43,10.0,NNW,17.3,-,N/A,,Partly Cloudy,330,2013-12-06 10:44:00
4:53 AM,-6.0,-9.9,83,30.59,10.0,NW,16.1,-,N/A,,Partly Cloudy,320,2013-12-06 10:53:00
5:53 AM,-8.0,-11.0,86,30.61,10.0,NW,16.1,-,N/A,,Clear,310,2013-12-06 11:53:00
6:17 AM,-7.6,-11.2,84,30.46,10.0,NW,16.1,-,N/A,,Scattered Clouds,310,2013-12-06 12:17:00
6:53 AM,-7.1,-11.0,83,30.63,10.0,NW,16.1,-,N/A,,Partly Cloudy,310,2013-12-06 12:53:00
7:35 AM,-7.6,-11.2,84,30.49,10.0,NW,10.4,-,N/A,,Mostly Cloudy,320,2013-12-06 13:35:00
7:53 AM,-7.1,-11.0,83,30.64,10.0,NW,12.7,-,N/A,,Overcast,320,2013-12-06 13:53:00
8:53 AM,-6.0,-9.9,83,30.67,10.0,NW,12.7,-,N/A,,Overcast,320,2013-12-06 14:53:00
9:30 AM,-5.8,-9.4,84,30.53,10.0,NW,13.8,-,N/A,,Scattered Clouds,320,2013-12-06 15:30:00
9:53 AM,-6.0,-9.0,87,30.69,10.0,NW,12.7,-,N/A,,Partly Cloudy,310,2013-12-06 15:53:00
10:53 AM,-5.1,-9.0,83,30.71,3.0,WNW,9.2,-,0.00,Snow,Light Snow,290,2013-12-06 16:53:00
11:04 AM,-5.8,-9.4,84,30.56,2.0,WNW,9.2,-,0.00,Snow,Light Snow,290,2013-12-06 17:04:00
11:23 AM,-4.0,-9.4,78,30.56,1.5,WNW,10.4,-,0.00,Snow,Light Snow,290,2013-12-06 17:23:00
11:37 AM,-4.0,-7.6,85,30.56,0.8,West,11.5,-,0.00,Snow,Light Snow,270,2013-12-06 17:37:00
11:53 AM,-5.1,-9.9,80,30.71,1.2,West,10.4,-,0.00,Snow,Light Snow,270,2013-12-06 17:53:00
12:12 PM,-5.8,-9.4,84,30.55,2.0,West,10.4,-,0.00,Snow,Light Snow,270,2013-12-06 18:12:00
12:25 PM,-5.8,-9.4,84,30.55,3.0,West,11.5,-,0.00,,Overcast,260,2013-12-06 18:25:00
12:53 PM,-4.0,-9.0,79,30.70,3.0,West,15.0,-,0.00,,Overcast,270,2013-12-06 18:53:00
12:58 PM,-4.0,-9.4,78,30.54,1.8,West,16.1,-,0.00,Snow,Light Snow,280,2013-12-06 18:58:00
1:07 PM,-4.0,-9.4,78,30.54,1.5,West,15.0,-,0.00,Snow,Light Snow,280,2013-12-06 19:07:00
1:17 PM,-4.0,-9.4,78,30.54,3.0,West,13.8,-,0.00,,Overcast,260,2013-12-06 19:17:00
1:27 PM,-4.0,-9.4,78,30.54,3.0,West,13.8,-,0.00,,Overcast,270,2013-12-06 19:27:00
1:53 PM,-2.9,-9.9,72,30.69,5.0,West,13.8,-,0.00,,Haze,280,2013-12-06 19:53:00
2:51 PM,-2.2,-9.4,71,30.53,3.0,West,11.5,-,0.00,Snow,Light Snow,280,2013-12-06 20:51:00
2:53 PM,-2.9,-9.0,75,30.68,3.0,West,11.5,-,0.00,Snow,Light Snow,270,2013-12-06 20:53:00
3:12 PM,-2.2,-9.4,71,30.53,2.0,West,9.2,-,0.00,Snow,Light Snow,270,2013-12-06 21:12:00
3:24 PM,-2.2,-9.4,71,30.53,2.5,West,10.4,-,0.00,Snow,Light Snow,270,2013-12-06 21:24:00
3:34 PM,-2.2,-9.4,71,30.53,1.8,West,10.4,-,0.00,Snow,Light Snow,270,2013-12-06 21:34:00
3:44 PM,-2.2,-9.4,71,30.53,2.0,West,11.5,-,0.00,Snow,Light Snow,270,2013-12-06 21:44:00
3:53 PM,-2.0,-9.0,72,30.69,3.0,West,11.5,-,0.00,Snow,Light Snow,270,2013-12-06 21:53:00
4:07 PM,-2.2,-9.4,71,30.54,2.5,West,10.4,-,0.00,Snow,Light Snow,260,2013-12-06 22:07:00
4:53 PM,-2.9,-9.9,72,30.71,3.0,West,12.7,-,0.00,Snow,Light Snow,270,2013-12-06 22:53:00
5:53 PM,-2.9,-9.9,72,30.72,4.0,West,11.5,-,0.00,Snow,Light Snow,270,2013-12-06 23:53:00
6:53 PM,-4.0,-11.0,72,30.74,4.0,West,13.8,-,0.00,Snow,Light Snow,270,2013-12-07 00:53:00
7:53 PM,-4.0,-11.0,72,30.75,8.0,West,10.4,-,0.00,,Overcast,280,2013-12-07 01:53:00
8:53 PM,-5.1,-11.0,76,30.76,9.0,West,10.4,-,0.00,,Overcast,270,2013-12-07 02:53:00
9:53 PM,-7.1,-11.0,83,30.78,4.0,WSW,8.1,-,0.00,Snow,Light Snow,240,2013-12-07 03:53:00
10:53 PM,-8.0,-14.1,75,30.78,8.0,WSW,5.8,-,0.00,,Overcast,250,2013-12-07 04:53:00
11:46 PM,-9.4,-14.8,77,30.62,10.0,SW,3.5,-,N/A,,Partly Cloudy,220,2013-12-07 05:46:00
11:53 PM,-9.0,-14.1,79,30.78,10.0,WSW,3.5,-,N/A,,Partly Cloudy,240,2013-12-07 05:53:00